Location: Beverley
(50.2667°N, 107.9667°W)
Time: 23:09:48
(UTC+00:00)

EO-79 - Pass Details

Date: 09 July 2022
Orbit: 588 x 603 km, 98.0° (Epoch: 18 August)

Event Time Altitude Azimuth Distance (km) Brightness Sun altitude
Rises 08:42:15 0° 17° (NNE) 2,865 ? -15.0°
Reaches altitude 10° 08:44:29 10° 23° (NNE) 1,959 ? -14.9°
Maximum altitude 08:48:38 52° 100° (E) 758 ? -14.6°
Enters shadow 08:51:25 20° 171° (S) 1,427 ? -14.5°
